START_TIME,STEP,MOV.,M6,t_acc.,M7,t_acc.,M19,t_acc.,H36,t_acc.
1981-08-29 12:00:27.720 ,5,0,0.,12.0,0.,12.0,0.,12.0,0.,12.0
1981-08-29 12:00:39.720 ,5,0,0.,12.0,0.,12.0,0.,12.0,0.,12.0
1981-08-29 12:00:51.720 ,4,1,0.,12.0,0.,12.0,0.,12.0,0.,12.0
1981-08-29 12:01:03.720 ,4,1,0.,12.0,0.,12.0,0.,12.0,0.,12.0
1981-08-29 12:01:15.720 ,4,0,0.,12.0,0.,12.0,0.,12.0,0.,12.0
1981-08-29 12:01:27.720 ,4,0,0.,12.0,0.,12.0,0.,12.0,0.,12.0
1981-08-29 12:01:39.720 ,3,1,0.,12.0,0.,12.0,0.,12.0,0.,12.0
1981-08-29 12:01:51.720 ,3,1,0.,12.0,0.,12.0,0.,12.0,0.,12.0
1981-08-29 12:02:03.720 ,3,0,0.,12.0,0.,12.0,0.,12.0,0.,12.0
1981-08-29 12:02:15.720 ,3,0,0.,12.0,0.,12.0,0.,12.0,0.,12.0
1981-08-29 12:02:27.720 ,2,1,0.,12.0,0.,12.0,0.,12.0,0.,12.0
1981-08-29 12:02:39.720 ,2,1,0.,12.0,0.,12.0,0.,12.0,0.,12.0
1981-08-29 12:02:51.720 ,2,0,0.,12.0,0.,12.0,0.,12.0,0.,12.0
1981-08-29 12:03:03.720 ,2,0,0.,12.0,0.,12.0,0.,12.0,0.,12.0
1981-08-29 12:03:15.720 ,1,1,0.,12.0,0.,12.0,0.,12.0,0.,12.0
1981-08-29 12:03:27.720 ,1,1,0.,12.0,0.,12.0,0.,12.0,0.,12.0
1981-08-29 12:03:39.720 ,1,0,0.,12.0,0.,12.0,0.,12.0,0.,12.0
1981-08-29 12:03:51.720 ,1,0,0.,12.0,0.,12.0,0.,12.0,0.,12.0
1981-08-29 12:04:03.720 ,0,1,0.,12.0,0.,12.0,0.,12.0,0.,12.0
1981-08-29 12:04:15.720 ,0,1,0.,12.0,0.,12.0,0.,12.0,0.,12.0
1981-08-29 12:04:27.720 ,0,0,0.,12.0,0.,12.0,0.,12.0,0.,12.0
1981-08-29 12:04:39.720 ,0,0,0.,12.0,0.,12.0,0.,12.0,0.,12.0
1981-08-29 12:04:51.720 ,0,1,0.,12.0,0.,12.0,0.,12.0,0.,12.0
1981-08-29 12:05:03.720 ,0,1,0.,12.0,0.,12.0,0.,12.0,0.,12.0
1981-08-29 12:05:15.720 ,0,0,0.,12.0,0.,12.0,0.,12.0,0.,12.0
1981-08-29 12:05:27.720 ,0,0,0.,12.0,0.,12.0,0.,12.0,0.,12.0
1981-08-29 12:05:39.720 ,1,1,0.,12.0,0.,12.0,0.,12.0,0.,12.0
1981-08-29 12:05:51.720 ,1,1,0.,12.0,0.,12.0,0.,12.0,0.,12.0
1981-08-29 12:06:03.720 ,1,0,0.,12.0,0.,12.0,0.,12.0,0.,12.0
1981-08-29 12:06:15.720 ,1,0,0.,12.0,0.,12.0,0.,12.0,0.,12.0
1981-08-29 12:06:27.720 ,2,1,0.,12.0,0.,12.0,0.,12.0,0.,12.0
1981-08-29 12:06:39.720 ,2,1,0.,12.0,0.,12.0,0.,12.0,0.,12.0
1981-08-29 12:06:51.720 ,2,0,0.,12.0,0.,12.0,0.,12.0,0.,12.0
1981-08-29 12:07:03.720 ,2,0,0.,12.0,0.,12.0,0.,12.0,0.,12.0
1981-08-29 12:07:15.720 ,3,1,0.,12.0,0.,12.0,0.,12.0,0.,12.0
1981-08-29 12:07:27.720 ,3,1,0.,12.0,0.,12.0,0.,12.0,0.,12.0
1981-08-29 12:07:39.720 ,3,0,0.,12.0,0.,12.0,0.,12.0,0.,12.0
1981-08-29 12:07:51.720 ,3,0,0.,12.0,0.,12.0,0.,12.0,0.,12.0
1981-08-29 12:08:03.720 ,4,1,0.,12.0,0.,12.0,0.,12.0,0.,12.0
1981-08-29 12:08:15.720 ,4,1,0.,12.0,0.,12.0,0.,12.0,0.,12.0
1981-08-29 12:08:27.720 ,4,0,0.,12.0,0.,12.0,0.,12.0,0.,12.0
1981-08-29 12:08:39.720 ,4,0,0.,12.0,0.,12.0,0.,12.0,0.,12.0
1981-08-29 12:08:51.720 ,5,1,0.,12.0,0.,12.0,0.,12.0,0.,12.0
1981-08-29 12:09:03.720 ,5,1,0.,12.0,0.,12.0,0.,12.0,0.,12.0
1981-08-29 12:09:15.720 ,5,0,0.,12.0,0.,12.0,0.,12.0,0.,12.0
1981-08-29 12:09:27.720 ,5,0,0.,12.0,0.,12.0,0.,12.0,0.,12.0
1981-08-29 12:09:39.720 ,6,1,0.,12.0,0.,12.0,0.,12.0,0.,12.0
1981-08-29 12:09:51.720 ,6,1,0.,12.0,0.,12.0,0.,12.0,0.,12.0
1981-08-29 12:10:03.720 ,6,0,0.,12.0,0.,12.0,0.,12.0,0.,12.0
1981-08-29 12:10:15.720 ,6,0,0.,12.0,0.,12.0,0.,12.0,0.,12.0
1981-08-29 12:10:27.720 ,7,1,0.,12.0,0.,12.0,0.,12.0,0.,12.0
1981-08-29 12:10:39.720 ,7,1,0.,12.0,0.,12.0,0.,12.0,0.,12.0
1981-08-29 12:10:51.720 ,7,0,0.,12.0,0.,12.0,0.,12.0,0.,12.0
1981-08-29 12:11:03.720 ,7,0,0.,12.0,0.,12.0,0.,12.0,0.,12.0
1981-08-29 12:11:15.720 ,7,1,0.,12.0,0.,12.0,0.,12.0,0.,12.0
1981-08-29 12:11:27.720 ,7,1,0.,12.0,0.,12.0,0.,12.0,0.,12.0
1981-08-29 12:11:39.720 ,6,1,0.,12.0,0.,12.0,0.,12.0,0.,12.0
1981-08-29 12:11:51.720 ,6,1,0.,12.0,0.,12.0,0.,12.0,0.,12.0
1981-08-29 12:12:03.720 ,5,1,0.,12.0,0.,12.0,0.,12.0,0.,12.0
1981-08-29 12:12:15.720 ,5,1,0.,12.0,0.,12.0,0.,12.0,0.,12.0
1981-08-29 12:12:27.720 ,4,1,0.,12.0,0.,12.0,0.,12.0,0.,12.0
1981-08-29 12:12:39.720 ,4,1,0.,12.0,0.,12.0,0.,12.0,0.,12.0
1981-08-29 12:12:51.720 ,3,1,0.,12.0,0.,12.0,0.,12.0,0.,12.0
1981-08-29 12:13:03.720 ,3,1,0.,12.0,0.,12.0,0.,12.0,0.,12.0
1981-08-29 12:13:15.720 ,2,1,0.,12.0,0.,12.0,0.,12.0,0.,12.0
1981-08-29 12:13:27.720 ,2,1,0.,12.0,0.,12.0,0.,12.0,0.,12.0
1981-08-29 12:13:39.720 ,1,1,0.,12.0,0.,12.0,0.,12.0,0.,12.0
1981-08-29 12:13:51.720 ,1,1,0.,12.0,0.,12.0,0.,12.0,0.,12.0
1981-08-29 12:14:03.720 ,0,1,0.,12.0,0.,12.0,0.,12.0,0.,12.0
1981-08-29 12:14:15.720 ,0,1,0.,12.0,0.,12.0,0.,12.0,0.,12.0
1981-08-29 12:14:27.720 ,0,1,0.,12.0,0.,12.0,0.,12.0,0.,12.0
1981-08-29 12:14:39.720 ,0,1,0.,12.0,0.,12.0,0.,12.0,0.,12.0
1981-08-29 12:14:51.720 ,1,1,0.,12.0,0.,12.0,0.,12.0,0.,12.0
1981-08-29 12:15:03.720 ,1,1,0.,12.0,0.,12.0,0.,12.0,0.,12.0
1981-08-29 12:15:15.720 ,2,1,0.,12.0,0.,12.0,0.,12.0,0.,12.0
1981-08-29 12:15:27.720 ,2,1,0.,12.0,0.,12.0,0.,12.0,0.,12.0
1981-08-29 12:15:39.720 ,3,1,0.,12.0,0.,12.0,0.,12.0,0.,12.0
1981-08-29 12:15:51.720 ,3,1,0.,12.0,0.,12.0,0.,12.0,0.,12.0
1981-08-29 12:16:03.720 ,4,1,0.,12.0,0.,12.0,0.,12.0,0.,12.0
1981-08-29 12:16:15.720 ,4,1,0.,12.0,0.,12.0,0.,12.0,0.,12.0
1981-08-29 12:16:27.720 ,5,1,0.,12.0,0.,12.0,0.,12.0,0.,12.0
1981-08-29 12:16:39.720 ,5,1,0.,12.0,0.,12.0,0.,12.0,0.,12.0
1981-08-29 12:16:51.720 ,6,1,0.,12.0,0.,12.0,0.,12.0,0.,12.0
1981-08-29 12:17:03.720 ,6,1,0.,12.0,0.,12.0,0.,12.0,0.,12.0
1981-08-29 12:17:15.720 ,7,1,0.,12.0,0.,12.0,0.,12.0,0.,12.0
1981-08-29 12:17:27.720 ,7,1,0.,12.0,0.,12.0,0.,12.0,0.,12.0
1981-08-29 12:17:39.720 ,7,1,0.,12.0,0.,12.0,0.,12.0,0.,12.0
1981-08-29 12:17:51.720 ,7,1,0.,12.0,0.,12.0,0.,12.0,0.,12.0
1981-08-29 12:18:03.720 ,7,0,0.,12.0,0.,12.0,0.,12.0,0.,12.0
1981-08-29 12:18:15.720 ,7,0,0.,12.0,0.,12.0,0.,12.0,0.,12.0
1981-08-29 12:18:27.720 ,6,1,0.,12.0,0.,12.0,0.,12.0,0.,12.0
1981-08-29 12:18:39.720 ,6,1,0.,12.0,0.,12.0,0.,12.0,0.,12.0
1981-08-29 12:18:51.720 ,6,0,0.,12.0,0.,12.0,0.,12.0,0.,12.0
1981-08-29 12:19:03.720 ,6,0,0.,12.0,0.,12.0,0.,12.0,0.,12.0
1981-08-29 12:19:15.720 ,5,1,0.,12.0,0.,12.0,0.,12.0,0.,12.0
1981-08-29 12:19:27.720 ,5,1,0.,12.0,0.,12.0,0.,12.0,0.,12.0
1981-08-29 12:19:39.720 ,5,0,0.,12.0,0.,12.0,0.,12.0,0.,12.0
1981-08-29 12:19:51.720 ,5,0,0.,12.0,0.,12.0,0.,12.0,0.,12.0
1981-08-29 12:20:03.720 ,4,1,0.,12.0,0.,12.0,0.,12.0,0.,12.0
1981-08-29 12:20:15.720 ,4,1,0.,12.0,0.,12.0,0.,12.0,0.,12.0
1981-08-29 12:20:27.720 ,4,0,0.,12.0,0.,12.0,0.,12.0,0.,12.0
1981-08-29 12:20:39.720 ,4,0,0.,12.0,0.,12.0,0.,12.0,0.,12.0
1981-08-29 12:20:51.720 ,3,1,0.,12.0,0.,12.0,0.,12.0,0.,12.0
1981-08-29 12:21:03.720 ,3,1,0.,12.0,0.,12.0,0.,12.0,0.,12.0
1981-08-29 12:21:15.720 ,3,0,0.,12.0,0.,12.0,0.,12.0,0.,12.0
1981-08-29 12:21:27.720 ,3,0,0.,12.0,0.,12.0,0.,12.0,0.,12.0
1981-08-29 12:21:39.720 ,2,1,0.,12.0,0.,12.0,0.,12.0,0.,12.0
1981-08-29 12:21:51.720 ,2,1,0.,12.0,0.,12.0,0.,12.0,0.,12.0
1981-08-29 12:22:03.720 ,2,0,0.,12.0,0.,12.0,0.,12.0,0.,12.0
1981-08-29 12:22:15.720 ,2,0,0.,12.0,0.,12.0,0.,12.0,0.,12.0
1981-08-29 12:22:27.720 ,1,1,0.,12.0,0.,12.0,0.,12.0,0.,12.0
1981-08-29 12:22:39.720 ,1,1,0.,12.0,0.,12.0,0.,12.0,0.,12.0
1981-08-29 12:22:51.720 ,1,0,0.,12.0,0.,12.0,0.,12.0,0.,12.0
1981-08-29 12:23:03.720 ,1,0,0.,12.0,0.,12.0,0.,12.0,0.,12.0
1981-08-29 12:23:15.720 ,0,1,0.,12.0,0.,12.0,0.,12.0,0.,12.0
1981-08-29 12:23:27.720 ,0,1,0.,12.0,0.,12.0,0.,12.0,0.,12.0
1981-08-29 12:23:39.720 ,0,0,0.,12.0,0.,12.0,0.,12.0,0.,12.0
1981-08-29 12:23:51.720 ,0,0,0.,12.0,0.,12.0,0.,12.0,0.,12.0
1981-08-29 12:24:03.720 ,0,1,0.,12.0,0.,12.0,0.,12.0,0.,12.0
1981-08-29 12:24:15.720 ,0,1,0.,12.0,0.,12.0,0.,12.0,0.,12.0
1981-08-29 12:24:27.720 ,0,0,0.,12.0,0.,12.0,0.,12.0,0.,12.0
1981-08-29 12:24:39.720 ,0,0,0.,12.0,0.,12.0,0.,12.0,0.,12.0
1981-08-29 12:24:51.720 ,1,1,0.,12.0,0.,12.0,0.,12.0,0.,12.0
1981-08-29 12:25:03.720 ,1,1,0.,12.0,0.,12.0,0.,12.0,0.,12.0
1981-08-29 12:25:15.720 ,0,0,0.,12.0,0.,12.0,0.,12.0,0.,12.0
1981-08-29 12:25:27.720 ,0,0,0.,12.0,0.,12.0,0.,12.0,0.,12.0
1981-08-29 12:25:39.720 ,2,1,0.,12.0,0.,12.0,0.,12.0,0.,12.0
1981-08-29 12:25:51.720 ,2,1,0.,12.0,0.,12.0,0.,12.0,0.,12.0
1981-08-29 12:26:03.720 ,2,0,0.,12.0,0.,12.0,0.,12.0,0.,12.0
1981-08-29 12:26:15.720 ,2,0,0.,12.0,0.,12.0,0.,12.0,0.,12.0
1981-08-29 12:26:27.720 ,3,1,0.,12.0,0.,12.0,0.,12.0,0.,12.0
1981-08-29 12:26:39.720 ,3,1,0.,12.0,0.,12.0,0.,12.0,0.,12.0
1981-08-29 12:26:51.720 ,3,0,0.,12.0,0.,12.0,0.,12.0,0.,12.0
1981-08-29 12:27:03.720 ,3,0,0.,12.0,0.,12.0,0.,12.0,0.,12.0
1981-08-29 12:27:15.720 ,4,1,0.,12.0,0.,12.0,0.,12.0,0.,12.0
1981-08-29 12:27:27.720 ,4,1,0.,12.0,0.,12.0,0.,12.0,0.,12.0
1981-08-29 12:27:39.720 ,4,0,0.,12.0,0.,12.0,0.,12.0,0.,12.0
1981-08-29 12:27:51.720 ,4,0,0.,12.0,0.,12.0,0.,12.0,0.,12.0
1981-08-29 12:28:03.720 ,5,1,0.,12.0,0.,12.0,0.,12.0,0.,12.0
1981-08-29 12:28:15.720 ,5,1,0.,12.0,0.,12.0,0.,12.0,0.,12.0
1981-08-29 12:28:27.720 ,5,0,0.,12.0,0.,12.0,0.,12.0,0.,12.0
1981-08-29 12:28:39.720 ,5,0,0.,12.0,0.,12.0,0.,12.0,0.,12.0
1981-08-29 12:28:51.720 ,6,1,0.,12.0,0.,12.0,0.,12.0,0.,12.0
1981-08-29 12:29:03.720 ,6,1,0.,12.0,0.,12.0,0.,12.0,0.,12.0
1981-08-29 12:29:15.720 ,6,0,0.,12.0,0.,12.0,0.,12.0,0.,12.0
1981-08-29 12:29:27.720 ,6,0,0.,12.0,0.,12.0,0.,12.0,0.,12.0
1981-08-29 12:29:39.720 ,7,1,0.,12.0,0.,12.0,0.,12.0,0.,12.0
1981-08-29 12:29:51.720 ,7,1,0.,12.0,0.,12.0,0.,12.0,0.,12.0
1981-08-29 12:30:03.720 ,7,0,0.,12.0,0.,12.0,0.,12.0,0.,12.0
1981-08-29 12:30:15.720 ,7,0,0.,12.0,0.,12.0,0.,12.0,0.,12.0
1981-08-29 12:30:27.720 ,7,1,0.,12.0,0.,12.0,0.,12.0,0.,12.0
1981-08-29 12:30:39.720 ,7,1,0.,12.0,0.,12.0,0.,12.0,0.,12.0
1981-08-29 12:30:51.720 ,6,1,0.,12.0,0.,12.0,0.,12.0,0.,12.0
1981-08-29 12:31:03.720 ,6,1,0.,12.0,0.,12.0,0.,12.0,0.,12.0
1981-08-29 12:31:15.720 ,5,1,0.,12.0,0.,12.0,0.,12.0,0.,12.0
1981-08-29 12:31:27.720 ,5,1,0.,12.0,0.,12.0,0.,12.0,0.,12.0
1981-08-29 12:31:39.720 ,4,1,0.,12.0,0.,12.0,0.,12.0,0.,12.0
1981-08-29 12:31:51.720 ,4,1,0.,12.0,0.,12.0,0.,12.0,0.,12.0
1981-08-29 12:32:03.720 ,3,1,0.,12.0,0.,12.0,0.,12.0,0.,12.0
1981-08-29 12:32:15.720 ,3,1,0.,12.0,0.,12.0,0.,12.0,0.,12.0
1981-08-29 12:32:27.720 ,2,1,0.,12.0,0.,12.0,0.,12.0,0.,12.0
1981-08-29 12:32:39.720 ,2,1,0.,12.0,0.,12.0,0.,12.0,0.,12.0
1981-08-29 12:32:51.720 ,1,1,0.,12.0,0.,12.0,0.,12.0,0.,12.0
1981-08-29 12:33:03.720 ,1,1,0.,12.0,0.,12.0,0.,12.0,0.,12.0
1981-08-29 12:33:15.720 ,0,1,0.,12.0,0.,12.0,0.,12.0,0.,12.0
1981-08-29 12:33:27.720 ,0,1,0.,12.0,0.,12.0,0.,12.0,0.,12.0
1981-08-29 12:33:39.720 ,0,1,0.,12.0,0.,12.0,0.,12.0,0.,12.0
1981-08-29 12:33:51.720 ,0,1,0.,12.0,0.,12.0,0.,12.0,0.,12.0
1981-08-29 12:34:03.720 ,1,1,0.,12.0,0.,12.0,0.,12.0,0.,12.0
1981-08-29 12:34:15.720 ,1,1,0.,12.0,0.,12.0,0.,12.0,0.,12.0
1981-08-29 12:34:27.720 ,2,1,0.,12.0,0.,12.0,0.,12.0,0.,12.0
1981-08-29 12:34:39.720 ,2,1,0.,12.0,0.,12.0,0.,12.0,0.,12.0
1981-08-29 12:34:51.720 ,3,1,0.,12.0,0.,12.0,0.,12.0,0.,12.0
1981-08-29 12:35:03.720 ,3,1,0.,12.0,0.,12.0,0.,12.0,0.,12.0
1981-08-29 12:35:15.720 ,4,1,0.,12.0,0.,12.0,0.,12.0,0.,12.0
1981-08-29 12:35:27.720 ,4,1,0.,12.0,0.,12.0,0.,12.0,0.,12.0
1981-08-29 12:35:39.720 ,5,1,0.,12.0,0.,12.0,0.,12.0,0.,12.0
1981-08-29 12:35:51.720 ,5,1,0.,12.0,0.,12.0,0.,12.0,0.,12.0
1981-08-29 12:36:03.720 ,6,1,0.,12.0,0.,12.0,0.,12.0,0.,12.0
1981-08-29 12:36:15.720 ,6,1,0.,12.0,0.,12.0,0.,12.0,0.,12.0
1981-08-29 12:36:27.720 ,7,1,0.,12.0,0.,12.0,0.,12.0,0.,12.0
1981-08-29 12:36:39.720 ,7,1,0.,12.0,0.,12.0,0.,12.0,0.,12.0
1981-08-29 12:36:51.720 ,7,1,0.,12.0,0.,12.0,0.,12.0,0.,12.0
1981-08-29 12:37:03.720 ,7,1,0.,12.0,0.,12.0,0.,12.0,0.,12.0
1981-08-29 12:37:15.720 ,7,0,0.,12.0,0.,12.0,0.,12.0,0.,12.0
1981-08-29 12:37:27.720 ,7,0,0.,12.0,0.,12.0,0.,12.0,0.,12.0
1981-08-29 12:37:39.720 ,6,1,0.,12.0,0.,12.0,0.,12.0,0.,12.0
1981-08-29 12:37:51.720 ,6,1,0.,12.0,0.,12.0,0.,12.0,0.,12.0
1981-08-29 12:38:03.720 ,6,0,0.,12.0,0.,12.0,0.,12.0,0.,12.0
1981-08-29 12:38:15.720 ,6,0,0.,12.0,0.,12.0,0.,12.0,0.,12.0
1981-08-29 12:38:27.720 ,5,1,0.,12.0,0.,12.0,0.,12.0,0.,12.0
1981-08-29 12:38:39.720 ,5,1,0.,12.0,0.,12.0,0.,12.0,0.,12.0
1981-08-29 12:38:51.720 ,5,0,0.,12.0,0.,12.0,0.,12.0,0.,12.0
1981-08-29 12:39:03.720 ,5,0,0.,12.0,0.,12.0,0.,12.0,0.,12.0
1981-08-29 12:39:15.720 ,4,1,0.,12.0,0.,12.0,0.,12.0,0.,12.0
1981-08-29 12:39:27.720 ,4,1,0.,12.0,0.,12.0,0.,12.0,0.,12.0
1981-08-29 12:39:39.720 ,4,0,0.,12.0,0.,12.0,0.,12.0,0.,12.0
1981-08-29 12:39:51.720 ,4,0,0.,12.0,0.,12.0,0.,12.0,0.,12.0
1981-08-29 12:40:03.720 ,3,1,0.,12.0,0.,12.0,0.,12.0,0.,12.0
1981-08-29 12:40:15.720 ,3,1,0.,12.0,0.,12.0,0.,12.0,0.,12.0
1981-08-29 12:40:27.720 ,3,0,0.,12.0,0.,12.0,0.,12.0,0.,12.0
1981-08-29 12:40:39.720 ,3,0,0.,12.0,0.,12.0,0.,12.0,0.,12.0
1981-08-29 12:40:51.720 ,2,1,0.,12.0,0.,12.0,0.,12.0,0.,12.0
1981-08-29 12:41:03.720 ,2,1,0.,12.0,0.,12.0,0.,12.0,0.,12.0
1981-08-29 12:41:15.720 ,2,0,0.,12.0,0.,12.0,0.,12.0,0.,12.0
1981-08-29 12:41:27.720 ,2,0,0.,12.0,0.,12.0,0.,12.0,0.,12.0
1981-08-29 12:41:39.720 ,1,1,0.,12.0,0.,12.0,0.,12.0,0.,12.0
1981-08-29 12:41:51.720 ,1,1,0.,12.0,0.,12.0,0.,12.0,0.,12.0
1981-08-29 12:42:03.720 ,1,0,0.,12.0,0.,12.0,0.,12.0,0.,12.0
1981-08-29 12:42:15.720 ,1,0,0.,12.0,0.,12.0,0.,12.0,0.,12.0
1981-08-29 12:42:27.720 ,0,1,0.,12.0,0.,12.0,0.,12.0,0.,12.0
1981-08-29 12:42:39.720 ,0,1,0.,12.0,0.,12.0,0.,12.0,0.,12.0
1981-08-29 12:42:51.720 ,0,0,0.,12.0,0.,12.0,0.,12.0,0.,12.0
1981-08-29 12:43:03.720 ,0,0,0.,12.0,0.,12.0,0.,12.0,0.,12.0
1981-08-29 12:43:15.720 ,0,1,0.,12.0,0.,12.0,0.,12.0,0.,12.0
1981-08-29 12:43:27.720 ,0,1,0.,12.0,0.,12.0,0.,12.0,0.,12.0
1981-08-29 12:43:39.720 ,0,0,0.,12.0,0.,12.0,0.,12.0,0.,12.0
1981-08-29 12:43:51.720 ,0,0,,0,,0,,0,,0
1981-08-29 12:43:39.720 ,0,0,0.,12.0,0.,12.0,0.,12.0,0.,12.0
1981-08-29 12:43:51.720 ,0,0,0.,12.0,0.,12.0,0.,12.0,0.,12.0
1981-08-29 12:44:03.720 ,1,1,0.,12.0,0.,12.0,0.,12.0,0.,12.0
1981-08-29 12:44:15.720 ,1,1,0.,12.0,0.,12.0,0.,12.0,0.,12.0
1981-08-29 12:44:27.720 ,1,0,0.,12.0,0.,12.0,0.,12.0,0.,12.0
1981-08-29 12:44:39.720 ,1,0,0.,12.0,0.,12.0,0.,12.0,0.,12.0
1981-08-29 12:44:51.720 ,2,1,0.,12.0,0.,12.0,0.,12.0,0.,12.0
1981-08-29 12:45:03.720 ,2,1,0.,12.0,0.,12.0,0.,12.0,0.,12.0
1981-08-29 12:45:15.720 ,2,0,0.,12.0,0.,12.0,0.,12.0,0.,12.0
1981-08-29 12:45:27.720 ,2,0,0.,12.0,0.,12.0,0.,12.0,0.,12.0
1981-08-29 12:45:39.720 ,3,1,0.,12.0,0.,12.0,0.,12.0,0.,12.0
1981-08-29 12:45:51.720 ,3,1,0.,12.0,0.,12.0,0.,12.0,0.,12.0
1981-08-29 12:46:03.720 ,3,0,0.,12.0,0.,12.0,0.,12.0,0.,12.0
1981-08-29 12:46:15.720 ,3,0,0.,12.0,0.,12.0,0.,12.0,0.,12.0
1981-08-29 12:46:27.720 ,4,1,0.,12.0,0.,12.0,0.,12.0,0.,12.0
1981-08-29 12:46:39.720 ,4,1,0.,12.0,0.,12.0,0.,12.0,0.,12.0
1981-08-29 12:46:51.720 ,4,0,0.,12.0,0.,12.0,0.,12.0,0.,12.0
1981-08-29 12:47:03.720 ,4,0,0.,12.0,0.,12.0,0.,12.0,0.,12.0
1981-08-29 12:47:15.720 ,5,1,0.,12.0,0.,12.0,0.,12.0,0.,12.0
1981-08-29 12:47:27.720 ,5,1,0.,12.0,0.,12.0,0.,12.0,0.,12.0
1981-08-29 12:47:39.720 ,5,0,0.,12.0,0.,12.0,0.,12.0,0.,12.0
1981-08-29 12:47:51.720 ,5,0,0.,12.0,0.,12.0,0.,12.0,0.,12.0
1981-08-29 12:48:03.720 ,6,1,,0,,0,,0,,0
1981-08-29 12:48:15.720 ,6,1,0.,12.0,0.,12.0,0.,12.0,0.,12.0
1981-08-29 12:48:27.720 ,6,0,0.,12.0,0.,12.0,0.,12.0,0.,12.0
1981-08-29 12:48:39.720 ,6,0,0.,12.0,0.,12.0,0.,12.0,0.,12.0
1981-08-29 12:48:51.720 ,7,1,0.,12.0,0.,12.0,0.,12.0,0.,12.0
1981-08-29 12:49:03.720 ,7,1,0.,12.0,0.,12.0,0.,12.0,0.,12.0
1981-08-29 12:49:15.720 ,7,0,0.,12.0,0.,12.0,0.,12.0,0.,12.0
1981-08-29 12:49:27.720 ,7,0,0.,12.0,0.,12.0,0.,12.0,0.,12.0
1981-08-29 12:49:39.720 ,7,1,0.,12.0,0.,12.0,0.,12.0,0.,12.0
1981-08-29 12:49:51.720 ,7,1,0.,12.0,0.,12.0,0.,12.0,0.,12.0
1981-08-29 12:50:03.720 ,6,1,0.,12.0,0.,12.0,0.,12.0,0.,12.0
1981-08-29 12:50:15.720 ,6,1,0.,12.0,0.,12.0,0.,12.0,0.,12.0
1981-08-29 12:50:27.720 ,5,1,0.,12.0,0.,12.0,0.,12.0,0.,12.0
1981-08-29 12:50:39.720 ,5,1,0.,12.0,0.,12.0,0.,12.0,0.,12.0
1981-08-29 12:50:51.720 ,4,1,0.,12.0,0.,12.0,0.,12.0,0.,12.0
1981-08-29 12:51:03.720 ,4,1,0.,12.0,0.,12.0,0.,12.0,0.,12.0
1981-08-29 12:51:15.720 ,3,1,0.,12.0,0.,12.0,0.,12.0,0.,12.0
1981-08-29 12:51:27.720 ,3,1,0.,12.0,0.,12.0,0.,12.0,0.,12.0
1981-08-29 12:51:39.720 ,2,1,0.,12.0,0.,12.0,0.,12.0,0.,12.0
1981-08-29 12:51:51.720 ,2,1,0.,12.0,0.,12.0,0.,12.0,0.,12.0
1981-08-29 12:52:03.720 ,1,1,0.,12.0,0.,12.0,0.,12.0,0.,12.0
1981-08-29 12:52:15.720 ,1,1,0.,12.0,0.,12.0,0.,12.0,0.,12.0
1981-08-29 12:52:27.720 ,0,1,0.,12.0,0.,12.0,0.,12.0,0.,12.0
1981-08-29 12:52:39.720 ,0,1,0.,12.0,0.,12.0,0.,12.0,0.,12.0
1981-08-29 12:52:51.720 ,0,1,0.,12.0,0.,12.0,0.,12.0,0.,12.0
1981-08-29 12:53:03.720 ,0,1,0.,12.0,0.,12.0,0.,12.0,0.,12.0
1981-08-29 12:53:15.720 ,1,1,0.,12.0,0.,12.0,0.,12.0,0.,12.0
1981-08-29 12:53:27.720 ,1,1,0.,12.0,0.,12.0,0.,12.0,0.,12.0
1981-08-29 12:53:39.720 ,2,1,0.,12.0,0.,12.0,0.,12.0,0.,12.0
1981-08-29 12:53:51.720 ,2,1,0.,12.0,0.,12.0,0.,12.0,0.,12.0
1981-08-29 12:54:03.720 ,3,1,0.,12.0,0.,12.0,0.,12.0,0.,12.0
1981-08-29 12:54:15.720 ,3,1,0.,12.0,0.,12.0,0.,12.0,0.,12.0
1981-08-29 12:54:27.720 ,4,1,0.,12.0,0.,12.0,0.,12.0,0.,12.0
1981-08-29 12:54:39.720 ,4,1,0.,12.0,0.,12.0,0.,12.0,0.,12.0
1981-08-29 12:54:51.720 ,5,1,0.,12.0,0.,12.0,0.,12.0,0.,12.0
1981-08-29 12:55:03.720 ,5,1,0.,12.0,0.,12.0,0.,12.0,0.,12.0
1981-08-29 12:55:15.720 ,6,1,0.,12.0,0.,12.0,0.,12.0,0.,12.0
1981-08-29 12:55:27.720 ,6,1,0.,12.0,0.,12.0,0.,12.0,0.,12.0
1981-08-29 12:55:39.720 ,7,1,0.,12.0,0.,12.0,0.,12.0,0.,12.0
1981-08-29 12:55:51.720 ,7,1,0.,12.0,0.,12.0,0.,12.0,0.,12.0
1981-08-29 12:56:03.720 ,7,1,0.,12.0,0.,12.0,0.,12.0,0.,12.0
1981-08-29 12:56:15.720 ,7,1,0.,12.0,0.,12.0,0.,12.0,0.,12.0
1981-08-29 12:56:27.720 ,7,0,0.,12.0,0.,12.0,0.,12.0,0.,12.0
1981-08-29 12:56:39.720 ,7,0,0.,12.0,0.,12.0,0.,12.0,0.,12.0
1981-08-29 12:56:51.720 ,6,1,0.,12.0,0.,12.0,0.,12.0,0.,12.0
1981-08-29 12:57:03.720 ,6,1,0.,12.0,0.,12.0,0.,12.0,0.,12.0
1981-08-29 12:57:15.720 ,6,0,0.,12.0,0.,12.0,0.,12.0,0.,12.0
1981-08-29 12:57:27.720 ,6,0,0.,12.0,0.,12.0,0.,12.0,0.,12.0
1981-08-29 12:57:39.720 ,5,1,0.,12.0,0.,12.0,0.,12.0,0.,12.0
1981-08-29 12:57:51.720 ,5,1,0.,12.0,0.,12.0,0.,12.0,0.,12.0
1981-08-29 12:58:03.720 ,5,0,0.,12.0,0.,12.0,0.,12.0,0.,12.0
1981-08-29 12:58:15.720 ,5,0,0.,12.0,0.,12.0,0.,12.0,0.,12.0
1981-08-29 12:58:27.720 ,4,1,0.,12.0,0.,12.0,0.,12.0,0.,12.0
1981-08-29 12:58:39.720 ,4,1,0.,12.0,0.,12.0,0.,12.0,0.,12.0
1981-08-29 12:58:51.720 ,4,0,0.,12.0,0.,12.0,0.,12.0,0.,12.0
1981-08-29 12:59:03.720 ,4,0,0.,12.0,0.,12.0,0.,12.0,0.,12.0
1981-08-29 12:59:15.720 ,3,1,0.,12.0,0.,12.0,0.,12.0,0.,12.0
1981-08-29 12:59:27.720 ,3,1,0.,12.0,0.,12.0,0.,12.0,0.,12.0
1981-08-29 12:59:39.720 ,3,0,0.,12.0,0.,12.0,0.,12.0,0.,12.0
1981-08-29 12:59:51.720 ,3,0,0.,12.0,0.,12.0,0.,12.0,0.,12.0
1981-08-29 13:00:03.720 ,2,1,0.,12.0,0.,12.0,0.,12.0,0.,12.0
1981-08-29 13:00:15.720 ,2,1,0.,12.0,0.,12.0,0.,12.0,0.,12.0
1981-08-29 13:00:27.720 ,2,0,0.,12.0,0.,12.0,0.,12.0,0.,12.0
1981-08-29 13:00:39.720 ,2,0,0.,12.0,0.,12.0,0.,12.0,0.,12.0
1981-08-29 13:00:51.720 ,1,1,0.,12.0,0.,12.0,0.,12.0,0.,12.0
1981-08-29 13:01:03.720 ,1,1,0.,12.0,0.,12.0,0.,12.0,0.,12.0
1981-08-29 13:01:15.720 ,1,0,0.,12.0,0.,12.0,0.,12.0,0.,12.0
1981-08-29 13:01:27.720 ,1,0,0.,12.0,0.,12.0,0.,12.0,0.,12.0
1981-08-29 13:01:39.720 ,0,1,0.,12.0,0.,12.0,0.,12.0,0.,12.0
1981-08-29 13:01:51.720 ,0,1,0.,12.0,0.,12.0,0.,12.0,0.,12.0
1981-08-29 13:02:03.720 ,0,0,0.,12.0,0.,12.0,0.,12.0,0.,12.0
1981-08-29 13:02:15.720 ,0,0,0.,12.0,0.,12.0,0.,12.0,0.,12.0
1981-08-29 13:02:27.720 ,0,1,0.,12.0,0.,12.0,0.,12.0,0.,12.0
1981-08-29 13:02:39.720 ,0,1,0.,12.0,0.,12.0,0.,12.0,0.,12.0
1981-08-29 13:02:51.720 ,0,0,0.,12.0,0.,12.0,0.,12.0,0.,12.0
1981-08-29 13:03:03.720 ,0,0,0.,12.0,0.,12.0,0.,12.0,0.,12.0
1981-08-29 13:03:15.720 ,1,1,0.,12.0,0.,12.0,0.,12.0,0.,12.0
1981-08-29 13:03:27.720 ,1,1,0.,12.0,0.,12.0,0.,12.0,0.,12.0
1981-08-29 13:03:39.720 ,1,0,0.,12.0,0.,12.0,0.,12.0,0.,12.0
1981-08-29 13:03:51.720 ,1,0,0.,12.0,0.,12.0,0.,12.0,0.,12.0
1981-08-29 13:04:03.720 ,2,1,0.,12.0,0.,12.0,0.,12.0,0.,12.0
1981-08-29 13:04:15.720 ,2,1,0.,12.0,0.,12.0,0.,12.0,0.,12.0
1981-08-29 13:04:27.720 ,2,0,0.,12.0,0.,12.0,0.,12.0,0.,12.0
1981-08-29 13:04:39.720 ,2,0,0.,12.0,0.,12.0,0.,12.0,0.,12.0
1981-08-29 13:04:51.720 ,3,1,0.,12.0,0.,12.0,0.,12.0,0.,12.0
1981-08-29 13:05:03.720 ,3,1,0.,12.0,0.,12.0,0.,12.0,0.,12.0
1981-08-29 13:05:15.720 ,3,0,0.,12.0,0.,12.0,0.,12.0,0.,12.0
1981-08-29 13:05:27.720 ,3,0,0.,12.0,0.,12.0,0.,12.0,0.,12.0
1981-08-29 13:05:39.720 ,4,1,0.,12.0,0.,12.0,0.,12.0,0.,12.0
1981-08-29 13:05:51.720 ,4,1,0.,12.0,0.,12.0,0.,12.0,0.,12.0
1981-08-29 13:06:03.720 ,4,0,0.,12.0,0.,12.0,0.,12.0,0.,12.0
1981-08-29 13:06:15.720 ,4,0,0.,12.0,0.,12.0,0.,12.0,0.,12.0
1981-08-29 13:06:27.720 ,5,1,0.,12.0,0.,12.0,0.,12.0,0.,12.0
1981-08-29 13:06:39.720 ,5,1,0.,12.0,0.,12.0,0.,12.0,0.,12.0
1981-08-29 13:06:51.720 ,5,0,0.,12.0,0.,12.0,0.,12.0,0.,12.0
1981-08-29 13:07:03.720 ,5,0,0.,12.0,0.,12.0,0.,12.0,0.,12.0
1981-08-29 13:07:15.720 ,6,1,0.,12.0,0.,12.0,0.,12.0,0.,12.0
1981-08-29 13:07:27.720 ,6,1,0.,12.0,0.,12.0,0.,12.0,0.,12.0
1981-08-29 13:07:39.720 ,6,0,0.,12.0,0.,12.0,0.,12.0,0.,12.0
1981-08-29 13:07:51.720 ,6,0,0.,12.0,0.,12.0,0.,12.0,0.,12.0
1981-08-29 13:08:03.720 ,7,1,0.,12.0,0.,12.0,0.,12.0,0.,12.0
1981-08-29 13:08:15.720 ,7,1,0.,12.0,0.,12.0,0.,12.0,0.,12.0
1981-08-29 13:08:27.720 ,7,0,0.,12.0,0.,12.0,0.,12.0,0.,12.0
1981-08-29 13:08:39.720 ,7,0,0.,12.0,0.,12.0,0.,12.0,0.,12.0
1981-08-29 13:08:51.720 ,7,1,0.,12.0,0.,12.0,0.,12.0,0.,12.0
1981-08-29 13:09:03.720 ,7,1,0.,12.0,0.,12.0,0.,12.0,0.,12.0
1981-08-29 13:09:15.720 ,6,1,0.,12.0,0.,12.0,0.,12.0,0.,12.0
1981-08-29 13:09:27.720 ,6,1,0.,12.0,0.,12.0,0.,12.0,0.,12.0
1981-08-29 13:09:39.720 ,5,1,0.,12.0,0.,12.0,0.,12.0,0.,12.0
1981-08-29 13:09:51.720 ,5,1,0.,12.0,0.,12.0,0.,12.0,0.,12.0
1981-08-29 13:10:03.720 ,4,1,0.,12.0,0.,12.0,0.,12.0,0.,12.0
1981-08-29 13:10:15.720 ,4,1,0.,12.0,0.,12.0,0.,12.0,0.,12.0
1981-08-29 13:10:27.720 ,3,1,0.,12.0,0.,12.0,0.,12.0,0.,12.0
1981-08-29 13:10:39.720 ,3,1,0.,12.0,0.,12.0,0.,12.0,0.,12.0
1981-08-29 13:10:51.720 ,2,1,0.,12.0,0.,12.0,0.,12.0,0.,12.0
1981-08-29 13:11:03.720 ,2,1,0.,12.0,0.,12.0,0.,12.0,0.,12.0
1981-08-29 13:11:15.720 ,1,1,0.,12.0,0.,12.0,0.,12.0,0.,12.0
1981-08-29 13:11:27.720 ,1,1,0.,12.0,0.,12.0,0.,12.0,0.,12.0
1981-08-29 13:11:39.720 ,0,1,0.,12.0,0.,12.0,0.,12.0,0.,12.0
1981-08-29 13:11:51.720 ,0,1,0.,12.0,0.,12.0,0.,12.0,0.,12.0
1981-08-29 13:12:03.720 ,0,1,0.,12.0,0.,12.0,0.,12.0,0.,12.0
1981-08-29 13:12:15.720 ,0,1,0.,12.0,0.,12.0,0.,12.0,0.,12.0
1981-08-29 13:12:27.720 ,1,1,0.,12.0,0.,12.0,0.,12.0,0.,12.0
1981-08-29 13:12:39.720 ,1,1,0.,12.0,0.,12.0,0.,12.0,0.,12.0
1981-08-29 13:12:51.720 ,2,1,0.,12.0,0.,12.0,0.,12.0,0.,12.0
1981-08-29 13:13:03.720 ,2,1,0.,12.0,0.,12.0,0.,12.0,0.,12.0
1981-08-29 13:13:15.720 ,3,1,0.,12.0,0.,12.0,0.,12.0,0.,12.0
1981-08-29 13:13:27.720 ,3,1,0.,12.0,0.,12.0,0.,12.0,0.,12.0
1981-08-29 13:13:39.720 ,4,1,0.,12.0,0.,12.0,0.,12.0,0.,12.0
1981-08-29 13:13:51.720 ,4,1,0.,12.0,0.,12.0,0.,12.0,0.,12.0
1981-08-29 13:14:03.720 ,5,1,0.,12.0,0.,12.0,0.,12.0,0.,12.0
1981-08-29 13:14:15.720 ,5,1,0.,12.0,0.,12.0,0.,12.0,0.,12.0
1981-08-29 13:14:27.720 ,6,1,0.,12.0,0.,12.0,0.,12.0,0.,12.0
1981-08-29 13:14:39.720 ,6,1,0.,12.0,0.,12.0,0.,12.0,0.,12.0
1981-08-29 13:14:51.720 ,7,1,0.,12.0,0.,12.0,0.,12.0,0.,12.0
1981-08-29 13:15:03.720 ,7,1,0.,12.0,0.,12.0,0.,12.0,0.,12.0
1981-08-29 13:15:15.720 ,7,1,0.,12.0,0.,12.0,0.,12.0,0.,12.0
1981-08-29 13:15:27.720 ,7,1,0.,12.0,0.,12.0,0.,12.0,0.,12.0
1981-08-29 13:15:39.720 ,7,0,0.,12.0,0.,12.0,0.,12.0,0.,12.0
1981-08-29 13:15:51.720 ,7,0,0.,12.0,0.,12.0,0.,12.0,0.,12.0
1981-08-29 13:16:03.720 ,6,1,0.,12.0,0.,12.0,0.,12.0,0.,12.0
1981-08-29 13:16:15.720 ,6,1,0.,12.0,0.,12.0,0.,12.0,0.,12.0
1981-08-29 13:16:27.720 ,6,0,0.,12.0,0.,12.0,0.,12.0,0.,12.0
1981-08-29 13:16:39.720 ,6,0,0.,12.0,0.,12.0,0.,12.0,0.,12.0
1981-08-29 13:16:51.720 ,5,1,0.,12.0,0.,12.0,0.,12.0,0.,12.0
1981-08-29 13:17:03.720 ,5,1,0.,12.0,0.,12.0,0.,12.0,0.,12.0